Total_Precipitation_Accumulation
0.00 0.00 0.04 0.13 0.07 0.12 0.08 0.04 0.06 0.15 0.33 0.27 0.21 0.17 0.13 0.08 0.07 0.06 0.07 0.08 0.11 0.11
0.00 0.00 0.01 0.08 0.13 0.15 0.12 0.14 0.17 0.24 0.36 0.37 0.31 0.31 0.16 0.07 0.02 0.02 0.04 0.08 0.12 0.16
0.00 0.00 0.06 0.05 0.16 0.28 0.24 0.09 0.24 0.30 0.35 0.32 0.19 0.12 0.07 0.04 0.02 0.07 0.11 0.11 0.12 0.08
0.14 0.11 0.29 0.33 0.45 0.36 0.29 0.28 0.42 0.30 0.15 0.06 0.08 0.06 0.02 0.02 0.04 0.02 0.05 0.09 0.09 0.06
0.57 0.44 0.43 0.51 0.53 0.57 0.41 0.13 0.10 0.12 0.04 0.02 0.01 0.01 0.01 0.01 0.02 0.04 0.06 0.05 0.03 0.01
0.48 0.44 0.31 0.37 0.28 0.13 0.10 0.07 0.05 0.04 0.03 0.01 0.00 0.00 0.01 0.02 0.04 0.04 0.03 0.02 0.01 0.00
0.19 0.35 0.14 0.20 0.13 0.07 0.05 0.05 0.05 0.03 0.03 0.01 0.02 0.02 0.02 0.02 0.01 0.01 0.00 0.00 0.00 0.00
0.09 0.15 0.09 0.14 0.13 0.07 0.05 0.03 0.03 0.03 0.01 0.01 0.01 0.01 0.01 0.00 0.01 0.00 0.00 0.00 0.00 0.00
0.06 0.09 0.10 0.09 0.06 0.05 0.04 0.03 0.01 0.02 0.02 0.01 0.01 0.02 0.01 0.00 0.00 0.00 0.00 0.00 0.00 0.00
0.02 0.06 0.06 0.05 0.04 0.02 0.02 0.01 0.02 0.01 0.00 0.00 0.00 0.00 0.00 0.00 0.00 0.00 0.00 0.00 0.00 0.00
0.02 0.03 0.04 0.04 0.02 0.02 0.01 0.00 0.00 0.00 0.00 0.00 0.00 0.00 0.00 0.00 0.00 0.00 0.00 0.00 0.00 0.00
0.00 0.02 0.03 0.01 0.00 0.00 0.00 0.00 0.00 0.00 0.00 0.00 0.00 0.00 0.00 0.00 0.00 0.00 0.00 0.00 0.00 0.00
0.01 0.01 0.01 0.00 0.00 0.00 0.00 0.00 0.00 0.00 0.00 0.00 0.00 0.00 0.00 0.00 0.00 0.00 0.00 0.00 0.00 0.00
0.00 0.00 0.00 0.00 0.00 0.00 0.00 0.00 0.00 0.00 0.00 0.00 0.00 0.00 0.00 0.00 0.00 0.00 0.00 0.00 0.00 0.00